TimeMDT,TemperatureF,Dew PointF,Humidity,Sea Level PressureIn,VisibilityMPH,Wind Direction,Wind SpeedMPH,Gust SpeedMPH,PrecipitationIn,Events,Conditions,WindDirDegrees,DateUTC
12:53 AM,57.9,36.0,44,29.92,10.0,NNE,15.0,-,N/A,,Clear,20,2013-05-08 06:53:00
1:53 AM,55.9,37.0,49,29.94,10.0,NNE,15.0,-,N/A,,Clear,20,2013-05-08 07:53:00
2:53 AM,53.1,36.0,52,29.95,10.0,North,16.1,-,N/A,,Clear,10,2013-05-08 08:53:00
3:53 AM,51.1,35.1,54,30.00,10.0,North,5.8,-,N/A,,Clear,350,2013-05-08 09:53:00
4:53 AM,46.0,34.0,63,30.04,10.0,WNW,11.5,-,N/A,,Partly Cloudy,300,2013-05-08 10:53:00
5:53 AM,45.0,34.0,65,30.06,10.0,WNW,11.5,-,N/A,,Scattered Clouds,300,2013-05-08 11:53:00
6:53 AM,48.0,35.1,61,30.07,10.0,NNW,10.4,-,N/A,,Scattered Clouds,330,2013-05-08 12:53:00
7:53 AM,50.0,35.1,57,30.09,10.0,North,8.1,-,N/A,,Scattered Clouds,360,2013-05-08 13:53:00
8:53 AM,53.1,35.1,50,30.12,10.0,NNE,4.6,-,N/A,,Partly Cloudy,20,2013-05-08 14:53:00
9:53 AM,55.9,36.0,47,30.12,10.0,Calm,Calm,-,N/A,,Partly Cloudy,0,2013-05-08 15:53:00
10:53 AM,60.1,37.0,42,30.12,10.0,NNE,5.8,-,N/A,,Partly Cloudy,30,2013-05-08 16:53:00
11:53 AM,64.9,37.0,36,30.10,10.0,North,10.4,-,N/A,,Scattered Clouds,10,2013-05-08 17:53:00
12:53 PM,66.0,37.0,34,30.09,10.0,ESE,8.1,-,N/A,,Partly Cloudy,110,2013-05-08 18:53:00
1:53 PM,66.9,37.0,33,30.08,10.0,ENE,6.9,-,N/A,,Partly Cloudy,70,2013-05-08 19:53:00
2:53 PM,69.1,37.0,31,30.08,10.0,ENE,6.9,-,N/A,,Partly Cloudy,70,2013-05-08 20:53:00
3:53 PM,70.0,37.0,30,30.06,10.0,ENE,6.9,17.3,N/A,,Partly Cloudy,70,2013-05-08 21:53:00
4:53 PM,71.1,37.9,30,30.06,10.0,ENE,6.9,19.6,N/A,,Partly Cloudy,60,2013-05-08 22:53:00
5:53 PM,70.0,37.0,30,30.06,10.0,ENE,9.2,-,N/A,,Clear,70,2013-05-08 23:53:00
6:53 PM,69.1,37.9,32,30.05,10.0,East,13.8,-,N/A,,Clear,80,2013-05-09 00:53:00
7:53 PM,66.9,37.9,34,30.06,10.0,ENE,8.1,-,N/A,,Clear,70,2013-05-09 01:53:00
8:53 PM,63.0,37.9,40,30.07,10.0,East,8.1,-,N/A,,Clear,90,2013-05-09 02:53:00
9:53 PM,60.1,37.9,44,30.08,10.0,East,9.2,-,N/A,,Clear,80,2013-05-09 03:53:00
10:53 PM,57.0,37.9,49,30.08,10.0,NE,8.1,-,N/A,,Clear,40,2013-05-09 04:53:00
11:53 PM,54.0,37.0,53,30.08,10.0,NNE,8.1,-,N/A,,Clear,30,2013-05-09 05:53:00